{"data":{"norad_id":69793,"intl_designator":"2026-152B","name":"2026-152B","alt_names":[],"object_type":"UNKNOWN","status":"UNKNOWN","operator":null,"country":"US","launch_date":"2026-07-03","launch_site_code":"WRAS","launch_vehicle":null,"mission":null,"orbit_class":"UNKNOWN","rcs_meters":null,"size_class":null,"mass_kg":null,"dimensions":null,"purposes":[],"wikipedia_slug":null,"has_3d_model":false,"image_url":null,"decayed_at":null,"tle_current":{"epoch":"2026-08-02T03:52:40.757376Z","epoch_age_seconds":4289874,"freshness":"OLD","line1":"1 69793U 26152B   26214.16158284  .00055310  00000+0  48735-3 0  9993","line2":"2 69793  20.5968 189.5802 0022397 238.3350 121.4911 15.66577588  4670","mean_motion":15.66577588,"eccentricity":0.0022397,"inclination_deg":20.5968,"raan_deg":189.5802,"arg_perigee_deg":238.335,"mean_anomaly_deg":121.4911,"bstar":0.00048735,"rev_number":467,"period_min":91.920120077704,"perigee_km":353.59454425811,"apogee_km":383.81635031649,"semimajor_km":6746.8424472873,"source":"CELESTRAK","updated_at":"2026-08-02T09:00:38.907953Z"}}}